STARLINK-2538, 48300

Orbit data source: Space-Track

STARLINK-2538, 48300 is a payload satellite owned by SpaceX/Seattle (US) in LEO that was launched on Thu, 29 Apr 2021 UTC via an FALCON 9 launch vehicle from the Air Force Eastern Test Range (AFETR). Payload-class satellites include a variety of spacecraft equipped with specific instruments for various scientific and technological missions. These include communications satellites like Starlink; space stations such as the ISS; scientific satellites like the Hubble; Earth observation satellites from companies like Planet Labs, Umbra, and HawkEye 360; GPS; miniature CubeSats for education and research; and military/defense satellites.

Loading next visibility...
Identifier
48300, 2021-036AA
Orbit
LEO
Country
Flag of USUS
Related business
Manufacturer
SpaceX/Seattle
Mission
Operational Commercial Communications
Bus & Motor
STARLINK, Unknown motor
Mass
260 kg wet, ~248 kg dry
Launch date (UTC)
2021-04-29 (5 years ago)
Launch vehicle
FALCON 9
Launch site
Air Force Eastern Test Range (AFETR)
Object type
Payload
Rocket body
Debris
Shape & HBR
Box + 1 Pan, 10.1 m
Radar Cross Section
13.562 m², Large (>1 m²)

Expand to show TLE details & history
Last TLE update: 7 hours ago

TLE from 7 hours ago
0 STARLINK-2538
1 48300U 21036AA  26127.27279875  .00001168  00000-0  49378-4 0  9993
2 48300  53.1578 175.7772 0000632  30.5785 329.5253 15.31707273277204
Epoch: 2026-05-07T06:32Z
TLE epoch observation values (Epoch: 2026-05-07T06:32:49.811Z)
Latitude
-0.00001°
Longitude
-147.55167°
Altitude
471.245 km
Speed
7.632 km/s
True Right ascension
11h 43m 06s
True Declination
0° 00' 00"
Sunlit
Object was in full shadow at epoch
Visualization orbit readout
Latitude
Unknown
Longitude
Unknown
Altitude
Unknown
Speed
Unknown
Apparent Right ascension
Unknown
Apparent Declination
Unknown
Sunlit
N/A
Visualization observer readout
Local Sidereal Time
21:27:25
Azimuth
Unknown
Elevation
Unknown
Doppler factor
Unknown
Orbital elements
Apogee altitude
471.408 km
Perigee altitude
470.542 km
Semi-major axis
6,849.112 km
Eccentricity
0.00006
Inclination
53.1578°
RAAN
175.7772°
Arg. of periapsis
30.5785°
True anomaly
329.52163°
Mean anomaly
329.5253°
Eccentric anomaly
329.52346°
Mean motion
3.82906 °/min
Orbital period
94.02 mins
BSTAR
0.000049378
Loading maneuver chart data...
Computing Atmospheric mass density...
Loading historical data...
Loading historical data...
Loading historical data...
Loading historical data...
Loading historical data...
Loading historical data...
Loading historical data...

Documentation

Showing up to 5 results
|